Location: Tamazert
(32.6352°N, 5.2072°W)
Time: 22:50:24
(UTC+00:00)

Cosmos 2369 Rocket - Pass Details

Date: 22 May 2022
Orbit: 830 x 851 km, 71.0° (Epoch: 24 June)

Event Time Altitude Azimuth Distance (km) Brightness Sun altitude
Rises 04:39:01 0° 335° (NNW) 3,376 5.4 -8.1°
Reaches altitude 10° 04:41:28 10° 332° (NNW) 2,438 4.6 -7.7°
Maximum altitude 04:46:57 61° 253° (WSW) 939 2.2 -6.7°
Drops below altitude 10° 04:52:26 10° 174° (S) 2,428 4.4 -5.7°
Sets 04:54:53 0° 171° (S) 3,360 5.1 -5.2°
